Home > Time Zones > World Clock > Weather > U.S.A. > Hilo > Past weeks

Flag for U.S.A. Weather past 2 weeks in Hilo, Hawaii, U.S.A.

Now
82 °F

Scattered clouds.


Feels Like: 84 °F
Forecast: 66 / 81 °F
Wind: 13 mph from East

Location: Hilo International Airport

Current Time: Apr 18, 2015 at 3:08:57 PM

Latest Report: Apr 18, 2015 at 1:53 PM


Visibility: 10 mi

Pressure: 30.11 "Hg

Humidity: 56%

Dew point: 65 °F

Location of HiloLocation

Historic Weather in Hilo — Graph

°F

Hilo temperature yesterday

Maximum temperature yesterday: 81 °F (at 1:53 PM)
Minimum temperature yesterday: 68 °F (at 4:10 AM)
Average temperature yesterday: 71 °F

Past Weeks' High & Low Weather Summary

 TemperatureHumidityPressure
High82 °F (Apr 3, 1:53 PM)100% (Apr 7, 9:00 AM)30.16 "Hg (Apr 7, 9:00 AM)
Low63 °F (Apr 16, 5:33 AM)54% (Apr 11, 12:53 PM)29.96 "Hg (Apr 6, 2:53 PM)
Average71 °F84%30.07 "Hg
* Reported Apr 3 1:53 PM — Apr 18 1:53 PM, Hilo, Weather by CustomWeather, © 2015

Note: Actual official high and low records may vary slightly from our data, if they occured in-between our weather recording intervals... More about our weather records

Advertising

Hilo weather history for previous 24 hours

 ConditionsComfort  
Time TempWeatherWind HumidityBarometerVisibility
1:53 PM
Sat, Apr 18
82 °FScattered clouds.13 mph56%30.11 "Hg10 mi
12:53 PM81 °FPassing clouds.12 mph60%30.13 "Hg10 mi
11:53 AM82 °FPassing clouds.9 mph58%30.15 "Hg10 mi
10:53 AM78 °FPartly sunny.7 mph62%30.16 "Hg10 mi
9:53 AM79 °FPartly sunny.7 mph58%30.16 "Hg10 mi
8:53 AM78 °FScattered clouds.No wind58%30.16 "Hg10 mi
7:53 AM72 °FScattered clouds.5 mph68%30.15 "Hg10 mi
6:53 AM66 °FPassing clouds.5 mph84%30.13 "Hg10 mi
5:53 AM65 °FPassing clouds.7 mph85%30.11 "Hg10 mi
4:53 AM66 °FClear.8 mph87%30.11 "Hg10 mi
3:53 AM66 °FClear.6 mph90%30.11 "Hg10 mi
2:53 AM67 °FLight rain. Partly cloudy.6 mph93%30.10 "Hg9 mi
1:53 AM68 °FOvercast.7 mph87%30.11 "Hg10 mi
12:53 AM68 °FPartly cloudy.6 mph87%30.12 "Hg10 mi
11:53 PM
Fri, Apr 17
68 °FPassing clouds.7 mph87%30.14 "Hg10 mi
11:26 PM68 °FPartly cloudy.8 mph88%30.15 "Hg10 mi
11:07 PM68 °FPassing clouds.8 mph88%30.15 "Hg10 mi
10:53 PM69 °FPassing clouds.7 mph87%30.14 "Hg10 mi
10:14 PM70 °FPassing clouds.No wind83%30.14 "Hg10 mi
9:53 PM69 °FPassing clouds.7 mph84%30.13 "Hg10 mi
8:53 PM69 °FLight rain. Passing clouds.9 mph84%30.12 "Hg7 mi
8:00 PM70 °FLight rain. Partly cloudy.10 mph93%30.10 "Hg9 mi
7:15 PM72 °FHeavy rain. Fog.No wind83%30.09 "Hg2 mi
6:53 PM75 °FOvercast.No wind74%30.06 "Hg10 mi
5:53 PM77 °FScattered clouds.3 mph64%30.04 "Hg10 mi
4:53 PM79 °FPartly sunny.5 mph60%30.03 "Hg10 mi
3:53 PM80 °FBroken clouds.5 mph58%30.03 "Hg10 mi
Weather by CustomWeather, © 2015

See weather overviewHow to use our weather pages